E3980 Weather Reports


time (UTC)temp
C
wind
direction
speed
KPH
gust
KPH
rain 1hr
cm
rain 24hr
cm
rain mn
cm
humidity
%
barometer
mb
20260906134409 23 211 1.6 6.4 0.00 1.32 1.24 90 975.9
20260906133904 22 234 1.6 6.4 0.00 1.32 1.24 92 976.0
20260906133358 22 243 1.6 6.4 0.00 1.32 1.24 93 976.0
20260906132852 21 215 3.2 8.0 0.00 1.32 1.24 93 976.0
20260906132346 21 222 3.2 8.0 0.00 1.32 1.24 94 976.0
20260906131840 21 168 1.6 6.4 0.00 1.32 1.24 94 976.0
20260906131334 21 219 1.6 6.4 0.00 1.32 1.24 95 976.0
20260906130322 20 233 3.2 6.4 0.00 1.32 1.24 95 976.1
20260906125816 20 245 3.2 6.4 0.00 1.32 1.24 95 976.1
20260906125310 20 211 3.2 6.4 0.00 1.32 1.24 95 976.2
20260906124804 20 227 1.6 6.4 0.00 1.32 1.24 95 976.3
20260906124258 20 202 1.6 6.4 0.00 1.32 1.24 95 976.4
20260906123753 20 233 1.6 4.8 0.00 1.32 1.24 95 976.4
20260906123246 20 254 3.2 8.0 0.00 1.32 1.24 95 976.4
20260906122741 20 202 3.2 8.0 0.00 1.32 1.24 95 976.4
20260906122234 20 232 1.6 4.8 0.00 1.32 1.24 95 976.3
20260906121230 20 236 1.6 6.4 0.00 1.32 1.24 95 976.1
20260906120728 20 197 1.6 6.4 0.00 1.32 1.24 95 976.0
20260906120227 20 150 1.6 4.8 0.00 1.32 1.24 95 975.9
20260906115728 20 171 1.6 4.8 0.00 1.32 1.24 95 975.8
20260906114727 19 241 1.6 4.8 0.00 1.32 1.24 95 975.8
20260906114225 19 245 1.6 4.8 0.00 1.32 1.24 95 975.7
20260906113724 19 202 0.0 3.2 0.00 1.32 1.24 95 975.7
20260906113225 19 306 0.0 1.6 0.00 1.32 1.24 95 975.7
20260906112722 19 306 0.0 1.6 0.00 1.32 1.24 95 975.6
20260906112219 19 306 0.0 1.6 0.00 1.32 1.24 95 975.5
20260906111721 19 306 0.0 1.6 0.00 1.32 1.24 95 975.6
20260906111220 19 306 0.0 0.0 0.00 1.32 1.24 95 975.6
20260906110722 19 306 0.0 0.0 0.00 1.32 1.24 95 975.6
20260906110217 20 306 0.0 0.0 0.00 1.32 1.24 95 975.5
20260906105717 20 306 0.0 0.0 0.00 1.32 1.24 95 975.5
20260906105216 20 306 0.0 0.0 0.00 1.32 1.24 95 975.5
20260906104716 20 306 0.0 1.6 0.00 1.32 1.24 95 975.5
20260906103716 20 306 0.0 3.2 0.00 1.32 1.24 95 975.5
20260906103217 20 313 0.0 4.8 0.00 1.32 1.24 95 975.4
20260906102717 20 313 1.6 4.8 0.00 1.32 1.24 95 975.5
20260906101213 20 320 3.2 9.7 0.00 1.32 1.24 94 975.5
20260906100713 20 320 4.8 9.7 0.00 1.32 1.24 94 975.5
20260906100217 20 313 4.8 9.7 0.00 1.32 1.24 94 975.5
20260906095712 20 318 4.8 9.7 0.00 1.32 1.24 95 975.5
20260906095212 20 357 3.2 9.7 0.00 1.32 1.24 95 975.4
20260906094711 20 325 3.2 9.7 0.00 1.32 1.24 94 975.3
20260906094212 20 326 0.0 8.0 0.00 1.32 1.24 94 975.2
20260906093208 20 252 3.2 8.0 0.00 1.32 1.24 94 975.0
20260906092708 20 223 3.2 8.0 0.00 1.32 1.24 94 974.9
20260906092209 20 217 3.2 6.4 0.00 1.32 1.24 94 974.9
20260906091208 20 226 3.2 6.4 0.03 1.32 1.24 94 974.9
20260906090206 20 209 3.2 8.0 0.08 1.32 1.24 94 974.9
20260906085705 20 243 3.2 8.0 0.10 1.32 1.24 94 975.0
20260906084707 20 191 1.6 6.4 0.13 1.32 1.24 94 975.0
20260906084206 20 257 3.2 8.0 0.13 1.32 1.24 94 975.0
20260906083707 20 157 3.2 8.0 0.13 1.32 1.24 94 974.9
20260906083206 20 209 3.2 8.0 0.13 1.32 1.24 94 975.0
20260906082703 20 176 3.2 6.4 0.13 1.32 1.24 94 974.9
20260906082201 20 225 1.6 6.4 0.13 1.32 1.24 94 975.0
20260906081703 20 262 0.0 11.3 0.15 1.32 1.24 94 975.3
20260906081157 20 72 3.2 11.3 0.13 1.30 1.22 94 975.1
20260906080651 20 229 4.8 11.3 0.10 1.27 1.19 94 974.9
20260906080145 20 145 4.8 11.3 0.18 1.24 1.17 94 975.1
20260906075639 20 171 4.8 9.7 0.41 1.22 1.14 94 975.0
20260906074627 20 265 0.0 3.2 1.09 1.19 1.12 94 975.7
20260906074121 20 343 0.0 1.6 1.12 1.19 1.12 94 976.0
20260906073109 20 103 1.6 4.8 1.12 1.19 1.12 93 976.1
20260906072603 20 168 1.6 4.8 1.12 1.19 1.12 93 976.2
20260906072057 20 221 1.6 4.8 1.12 1.19 1.12 93 976.5
20260906071552 20 213 0.0 3.2 1.09 1.17 1.09 93 976.8
20260906071045 21 164 1.6 3.2 1.09 1.17 1.09 92 977.0
20260906070539 21 152 1.6 4.8 1.09 1.17 1.09 91 977.3
20260906070033 21 322 3.2 16.1 0.89 0.97 0.94 89 977.6
20260906065527 22 318 6.4 19.3 0.66 0.74 0.66 87 977.7
20260906065021 23 313 6.4 19.3 0.05 0.13 0.13 82 977.7
20260906064515 23 320 11.3 27.4 0.03 0.10 0.03 79 977.3
20260906064009 23 349 12.9 27.4 0.00 0.08 0.00 81 977.2
20260906063511 23 309 6.4 25.7 0.00 0.08 0.00 83 976.6
20260906062957 23 335 0.0 4.8 0.00 0.08 0.00 85 975.9
20260906062451 23 256 0.0 1.6 0.00 0.08 0.00 85 975.7
20260906061945 23 256 0.0 3.2 0.00 0.08 0.00 85 975.7
20260906061440 23 226 0.0 4.8 0.00 0.08 0.00 86 975.7
20260906060934 23 227 0.0 4.8 0.00 0.08 0.00 86 975.7
20260906054909 24 246 3.2 14.5 0.00 0.08 0.00 84 975.9
20260906054403 24 261 4.8 17.7 0.00 0.08 0.00 85 975.9
20260906053857 24 315 4.8 17.7 0.00 0.08 0.00 87 975.8
20260906053351 23 318 3.2 12.9 0.00 0.08 0.00 89 975.9
20260906052846 23 342 3.2 9.7 0.00 0.08 0.00 89 975.9
20260906052338 23 263 3.2 9.7 0.00 0.08 0.00 90 976.0
20260906051838 23 315 3.2 9.7 0.00 0.08 0.00 91 975.8
20260906051323 23 307 3.2 17.7 0.00 0.08 0.00 93 975.7
20260906050311 21 353 1.6 11.3 0.00 0.08 0.00 94 975.5
20260906045806 21 323 1.6 4.8 0.00 0.08 0.08 94 975.3
20260906045300 21 244 1.6 4.8 0.00 0.08 0.08 94 975.0
20260906044754 21 237 1.6 4.8 0.00 0.08 0.08 94 975.1
20260906044248 21 237 3.2 4.8 0.00 0.08 0.08 94 975.1
20260906043749 21 233 1.6 4.8 0.00 0.08 0.08 94 975.1
20260906043247 21 230 1.6 6.4 0.00 0.08 0.08 94 975.4
20260906042747 21 221 1.6 6.4 0.00 0.08 0.08 94 975.4
20260906042247 21 223 1.6 4.8 0.00 0.08 0.08 94 975.5
20260906041747 21 235 1.6 4.8 0.00 0.08 0.08 94 975.5
20260906041247 21 231 3.2 4.8 0.00 0.08 0.08 93 975.5
20260906040746 21 222 1.6 4.8 0.00 0.08 0.08 93 975.4
20260906040246 21 231 1.6 4.8 0.00 0.08 0.08 93 975.5
20260906035243 21 179 3.2 8.0 0.00 0.08 0.08 93 975.6
20260906034746 22 204 3.2 8.0 0.00 0.08 0.08 93 975.6
20260906034241 22 226 3.2 9.7 0.00 0.08 0.08 93 975.7
20260906033742 21 169 3.2 9.7 0.00 0.08 0.08 93 975.7
20260906032741 21 223 3.2 8.0 0.00 0.08 0.08 93 975.7
20260906032241 21 205 3.2 8.0 0.00 0.08 0.08 93 975.7
20260906031742 21 192 3.2 6.4 0.00 0.08 0.08 93 975.6
20260906031243 21 195 3.2 6.4 0.00 0.08 0.08 93 975.5
20260906030739 21 235 3.2 8.0 0.00 0.08 0.08 93 975.4
20260906030237 22 254 4.8 8.0 0.00 0.08 0.08 93 975.4
20260906025739 22 207 4.8 11.3 0.00 0.08 0.08 93 975.4
20260906025237 22 214 4.8 11.3 0.00 0.08 0.08 93 975.4
20260906024738 22 228 3.2 6.4 0.00 0.08 0.08 93 975.3
20260906024237 22 211 3.2 6.4 0.00 0.08 0.08 93 975.1
20260906023739 22 231 3.2 6.4 0.00 0.08 0.08 93 975.2
20260906023239 22 233 3.2 6.4 0.00 0.08 0.08 93 975.1
20260906022739 22 228 1.6 6.4 0.00 0.08 0.08 93 975.0
20260906022232 22 230 1.6 4.8 0.00 0.08 0.08 93 975.0
20260906021725 22 216 1.6 4.8 0.00 0.08 0.08 93 974.9
20260906021219 22 218 1.6 6.4 0.00 0.08 0.08 93 974.9
20260906020714 22 230 1.6 6.4 0.00 0.08 0.08 93 974.9
20260906020207 22 240 1.6 4.8 0.00 0.08 0.08 93 974.9
20260906015702 22 235 1.6 4.8 0.00 0.08 0.08 93 974.8
20260906015156 22 229 1.6 3.2 0.00 0.08 0.08 93 974.7
20260906014650 22 227 0.0 3.2 0.00 0.08 0.08 93 974.6
20260906014151 22 222 0.0 1.6 0.00 0.08 0.08 92 974.6
20260906013647 22 215 0.0 1.6 0.00 0.08 0.08 92 974.6
20260906013147 22 212 0.0 3.2 0.00 0.08 0.08 92 974.5
20260906012649 22 184 0.0 3.2 0.00 0.08 0.08 92 974.6
20260906012149 22 158 0.0 1.6 0.00 0.08 0.08 92 974.5
20260906011644 22 158 0.0 1.6 0.00 0.08 0.08 91 974.6
20260906011143 22 158 0.0 0.0 0.00 0.08 0.08 91 974.6
20260906010642 22 158 0.0 0.0 0.00 0.08 0.08 90 974.4
20260906010142 23 158 0.0 0.0 0.00 0.08 0.08 90 974.3
20260906005639 23 158 0.0 0.0 0.00 0.08 0.08 90 974.5
20260906005139 23 158 0.0 4.8 0.00 0.08 0.08 90 974.4
20260906004639 23 158 1.6 4.8 0.00 0.08 0.08 89 974.4
20260906003636 23 317 0.0 3.2 0.00 0.08 0.08 90 974.6
20260906002633 23 251 1.6 4.8 0.00 0.08 0.08 89 974.3
20260906002130 23 235 1.6 4.8 0.00 0.08 0.08 89 974.2
20260906001631 23 188 1.6 3.2 0.00 0.08 0.08 88 974.3
20260906001126 23 256 0.0 4.8 0.00 0.08 0.08 88 974.1
20260906000624 23 204 1.6 4.8 0.00 0.08 0.08 88 974.1
20260906000125 24 165 1.6 4.8 0.00 0.08 0.08 87 974.1
20260905235619 24 313 0.0 1.6 0.00 0.08 0.08 86 974.1
20260905235114 25 270 0.0 1.6 0.03 0.08 0.08 86 974.0
20260905234607 25 271 0.0 4.8 0.05 0.08 0.08 85 974.1
20260905234101 25 226 1.6 4.8 0.08 0.08 0.08 85 974.3
20260905233556 25 225 1.6 6.4 0.08 0.08 0.08 85 974.4
20260905231532 24 176 6.4 11.3 0.08 0.08 0.08 86 974.8
20260905231026 24 142 6.4 11.3 0.08 0.08 0.08 86 975.4
20260905230522 24 143 4.8 11.3 0.08 0.08 0.08 87 975.9
20260905230014 24 169 4.8 11.3 0.08 0.08 0.08 86 975.8
20260905225508 24 299 6.4 14.5 0.08 0.08 0.08 84 975.3
20260905225001 25 350 8.0 20.9 0.05 0.05 0.05 79 975.4
20260905223950 30 29 12.9 29.0 0.00 0.00 0.00 63 974.2
20260905223444 32 351 11.3 32.2 0.00 0.00 0.00 58 974.1
20260905222937 35 335 4.8 32.2 0.00 0.00 0.00 48 974.0
20260905221925 36 322 3.2 9.7 0.00 0.00 0.00 45 973.5
20260905220407 36 318 1.6 8.0 0.00 0.00 0.00 43 973.4
20260905215902 36 329 3.2 9.7 0.00 0.00 0.00 46 973.5
20260905214849 36 347 4.8 12.9 0.00 0.00 0.00 46 973.8
20260905214343 36 330 4.8 12.9 0.00 0.00 0.00 45 973.9
20260905213837 36 298 3.2 9.7 0.00 0.00 0.00 47 973.9
20260905212825 36 323 4.8 12.9 0.00 0.00 0.00 48 973.9
20260905212319 35 293 4.8 14.5 0.00 0.00 0.00 46 973.9
20260905211814 35 319 4.8 14.5 0.00 0.00 0.00 48 974.0
20260905205749 35 21 4.8 11.3 0.00 0.00 0.00 47 973.9
20260905204738 35 308 6.4 12.9 0.00 0.00 0.00 47 974.0
20260905203725 35 296 6.4 17.7 0.00 0.00 0.00 47 974.0
20260905203219 36 327 6.4 14.5 0.00 0.00 0.00 48 974.2
20260905202713 36 317 4.8 14.5 0.00 0.00 0.00 49 974.2
20260905202209 36 282 3.2 12.9 0.00 0.00 0.00 46 974.3
20260905201708 36 313 4.8 19.3 0.00 0.00 0.00 48 974.4
20260905201209 36 335 4.8 19.3 0.00 0.00 0.00 49 974.5
20260905200709 36 358 3.2 12.9 0.00 0.00 0.00 46 974.5
20260905200208 35 294 4.8 12.9 0.00 0.00 0.00 48 974.5
20260905195709 35 333 3.2 11.3 0.00 0.00 0.00 48 974.7
20260905195208 35 342 3.2 12.9 0.00 0.00 0.00 48 974.7
20260905194706 35 309 4.8 12.9 0.00 0.00 0.00 49 974.8
20260905194207 35 357 6.4 17.7 0.00 0.00 0.00 49 974.8
20260905193207 35 327 6.4 16.1 0.00 0.00 0.00 51 974.9
20260905192708 35 334 4.8 16.1 0.00 0.00 0.00 52 974.9
20260905192208 35 326 4.8 16.1 0.00 0.00 0.00 51 974.9
20260905191708 35 330 4.8 12.9 0.00 0.00 0.00 51 975.0
20260905191208 35 315 6.4 17.7 0.00 0.00 0.00 50 975.0
20260905190708 35 312 8.0 17.7 0.00 0.00 0.00 49 975.1
20260905190202 35 324 6.4 19.3 0.00 0.00 0.00 49 975.2
20260905185702 35 336 6.4 19.3 0.00 0.00 0.00 48 975.3
20260905185204 35 318 6.4 16.1 0.00 0.00 0.00 48 975.4
20260905184704 35 325 4.8 16.1 0.00 0.00 0.00 50 975.4
20260905184202 35 339 4.8 14.5 0.00 0.00 0.00 49 975.5
20260905183702 35 311 6.4 16.1 0.00 0.00 0.00 53 975.6
20260905183203 34 311 8.0 16.1 0.00 0.00 0.00 51 975.7
20260905182704 34 315 9.7 22.5 0.00 0.00 0.00 51 975.8
20260905182159 35 291 8.0 22.5 0.00 0.00 0.00 51 975.8
20260905181659 35 305 4.8 16.1 0.00 0.00 0.00 51 975.9
20260905181158 35 319 3.2 12.9 0.00 0.00 0.00 49 976.0
20260905175700 35 271 4.8 14.5 0.00 0.00 0.00 53 976.1
20260905175200 34 189 4.8 16.1 0.00 0.00 0.00 53 976.1
20260905174701 34 310 4.8 16.1 0.00 0.00 0.00 53 976.2
20260905173152 34 299 4.8 12.9 0.00 0.00 0.00 54 976.2
20260905172653 34 294 6.4 16.1 0.00 0.00 0.00 53 976.2
20260905172153 33 288 8.0 16.1 0.00 0.00 0.00 56 976.3
20260905171654 33 333 4.8 12.9 0.00 0.00 0.00 55 976.3
20260905171152 33 327 6.4 12.9 0.00 0.00 0.00 56 976.3
20260905170651 33 326 4.8 12.9 0.00 0.00 0.00 56 976.4
20260905170150 33 314 1.6 9.7 0.00 0.00 0.00 55 976.5
20260905165650 33 346 4.8 16.1 0.00 0.00 0.00 56 976.5
20260905165152 33 304 4.8 17.7 0.00 0.00 0.00 56 976.7
20260905164650 33 337 4.8 17.7 0.00 0.00 0.00 55 976.7
20260905164152 33 280 8.0 17.7 0.00 0.00 0.00 56 976.8
20260905163652 33 324 8.0 17.7 0.00 0.00 0.00 56 976.8
20260905163146 33 312 8.0 17.7 0.00 0.00 0.00 56 977.0
20260905162640 33 327 6.4 16.1 0.00 0.00 0.00 59 977.0
20260905162134 33 301 4.8 16.1 0.00 0.00 0.00 58 977.1
20260905161632 33 300 3.2 12.9 0.00 0.00 0.00 57 977.1
20260905160632 33 334 1.6 8.0 0.00 0.00 0.00 58 977.3
20260905160133 32 330 3.2 12.9 0.00 0.00 0.00 60 977.3
20260905155634 32 325 3.2 12.9 0.00 0.00 0.00 60 977.3
20260905155132 32 319 3.2 8.0 0.00 0.00 0.00 59 977.3
20260905154632 32 329 3.2 9.7 0.00 0.00 0.00 61 977.3
20260905154132 32 345 1.6 9.7 0.00 0.00 0.00 63 977.3
20260905153630 32 20 0.0 4.8 0.00 0.00 0.00 63 977.3
20260905153132 32 347 3.2 12.9 0.00 0.00 0.00 63 977.4
20260905152631 31 341 4.8 14.5 0.00 0.00 0.00 64 977.3
20260905152128 31 299 4.8 14.5 0.00 0.00 0.00 64 977.2
20260905151628 31 316 3.2 8.0 0.00 0.00 0.00 65 977.3
20260905151128 31 325 3.2 8.0 0.00 0.00 0.00 67 977.4
20260905150630 31 340 3.2 8.0 0.00 0.00 0.00 66 977.3
20260905150128 31 288 3.2 8.0 0.00 0.00 0.00 66 977.3
20260905145123 30 325 1.6 8.0 0.00 0.00 0.00 70 977.4
20260905144111 30 300 1.6 4.8 0.00 0.00 0.00 70 977.5
20260905143605 30 351 0.0 1.6 0.00 0.00 0.00 72 977.5
20260905143058 29 346 0.0 1.6 0.00 0.00 0.00 72 977.5
20260905142047 29 259 0.0 0.0 0.00 0.00 0.00 77 977.7
20260905141541 28 259 0.0 1.6 0.00 0.00 0.00 79 977.6
20260905141035 28 259 0.0 1.6 0.00 0.00 0.00 81 977.6
20260905140529 28 237 0.0 1.6 0.00 0.00 0.00 83 977.8
20260905140023 27 226 0.0 1.6 0.00 0.00 0.00 86 977.7
20260905135517 27 226 0.0 1.6 0.00 0.00 0.00 89 977.7
20260905135011 26 226 0.0 1.6 0.00 0.00 0.00 93 977.7